Regional Weather Roundup
Issued by NWS

Home | Current Version | Previous Version | Text Only | Print | Product List | Glossary On
Versions: 1 2 3 4 5 6 7 8 9 10 11 12 13 14 15 16 17 18 19 20 21 22 23 24 25 26 27 28 29 30 31 32 33 34 35 36 37 38 39 40 41 42 43 44 45 46 47 48 49 50
000
ASUS44 KJAN 201010
RWRMS

MISSISSIPPI HOURLY WEATHER ROUNDUP
NATIONAL WEATHER SERVICE JACKSON MS
400 AM CST SAT JAN 20 2018

NOTE: "FAIR: INDICATES FEW OR NO CLOUDS BELOW 12,000 FEET WITH NO
SIGNIFICANT WEATHER AND/OR OBSTRUCTIONS TO VISIBILITY.

MSZ001>002-007>008-010>013-018>021-025>028-034>036-201100-
NORTHWEST MISSISSIPPI

CITY           SKY/WX    TMP DP  RH WIND       PRES   REMARKS
BATESVILLE     CLOUDY    43  23  45 CALM      30.20F
CLARKSDALE     CLOUDY    39  30  70 S6        30.18F WCI  35
CLEVELAND      CLOUDY    41  30  66 S7        30.18F
GREENWOOD      CLOUDY    41  31  67 SE3       30.21S
GREENVILLE     CLOUDY    43  28  55 S6        30.17F
OXFORD         CLOUDY    43  25  49 S3        30.21S
TUNICA           N/A     37  28  70 S6        30.19S WCI  33
WINONA         CLOUDY    42  29  60 CALM      30.21S
$$

MSZ003>006-009-014>017-022>024-029>033-037>039-201100-
NORTHEAST MISSISSIPPI

CITY           SKY/WX    TMP DP  RH WIND       PRES   REMARKS
ABERDEEN         N/A     46  30  53 S5        30.24S
COLUMBUS AFB   CLOUDY    45  29  53 CALM      30.22F
CORINTH        CLOUDY    45  25  45 S6        30.19F
GOLDN TRIANGLE CLOUDY    45  26  47 S6        30.24R
STARKVILLE     CLOUDY    43  30  61 S3        30.24F
TUPELO         CLOUDY    44  25  47 S3        30.22R
$$

MSZ040-058-201100-
CENTRAL MISSISSIPPI

CITY           SKY/WX    TMP DP  RH WIND       PRES   REMARKS
JACKSON INTL   FAIR      38  23  55 CALM      30.21R
JACKSON HAWKNS FAIR      38  25  59 CALM      30.22S
MADISON        FAIR      37  23  56 CALM      30.21S
MERIDIAN KEY   FAIR      38  29  70 CALM      30.25S
MERIDIAN NAS   FAIR      46  25  43 S3        30.25S
RAYMOND          N/A     34  28  80 CALM      30.21S
VICKSBURG VKS  CLOUDY    41  30  65 CALM      30.21F
$$

MSZ059>079-201100-
SOUTH MISSISSIPPI

CITY           SKY/WX    TMP DP  RH WIND       PRES   REMARKS
COLUMBIA       FAIR      39  32  75 CALM      30.26F
HATTIESBURG    FAIR      39  32  76 CALM      30.24F
LAUREL         FAIR      40  30  66 CALM      30.25S
MCCOMB         MOCLDY    44  27  51 E3        30.21S
NATCHEZ        FAIR      44  31  60 SE7       30.20S
PINE BELT      FAIR      40  29  64 CALM      30.24S
$$

MSZ080>082-201100-
COASTAL MISSISSIPPI

CITY           SKY/WX    TMP DP  RH WIND       PRES   REMARKS
BILOXI         MOCLDY    41  34  75 NE3       30.23F
PASCAGOULA     FAIR      35  32  88 CALM      30.25F
GULFPORT       FAIR      42  34  73 CALM      30.23F
$$

LAZ007>009-015>016-023>026-201100-
NORTHEAST LOUISIANA

CITY           SKY/WX    TMP DP  RH WIND       PRES   REMARKS
BASTROP        FAIR      44  26  48 SE5       30.18S
TALLULAH/VBURG CLOUDY    43  33  68 SE7       30.21S
VIDALIA        PTSUNNY   44  33  65 MISG      30.19F
$$



USA.gov is the U.S. government's official web portal to all federal, state and local government web resources and services.